Weather History for KFAT - May, 2014

Change the Weather History Date:

Sunday, May 4, 2014

  Actual Average Record
Temperature  
Mean Temperature 69 °F 67 °F  
Max Temperature 81 °F 81 °F 100 °F (2004)
Min Temperature 56 °F 54 °F 39 °F (1950)
Degree Days  
Heating Degree Days 0    
Month to date heating degree days 0  
Since 1 July heating degree days 1501  
Cooling Degree Days 4    
Month to date cooling degree days 44  
Year to date cooling degree days 188  
Growing Degree Days 18 (Base 50)    
Moisture  
Dew Point 44 °F    
Average Humidity 49    
Maximum Humidity 72    
Minimum Humidity 25    
Precipitation  
Precipitation 0.00 in 0.02 in 0.20 in (1998)
Month to date precipitation 0.00 0.09  
Year to date precipitation 4.04 7.29  
Since 1 July precipitation 4.77  
Snow  
Snow 0.00 in - - ()
Month to date snowfall 0.0  
Since 1 July snowfall 0.0  
Snow Depth 0.00 in    
Sea Level Pressure  
Sea Level Pressure 29.97 in    
Wind  
Wind Speed 11 mph (NW)    
Max Wind Speed 21 mph    
Max Gust Speed 31 mph    
Visibility 10 miles    
Events      
T = Trace of Precipitation, MM = Missing Value Source: NWS Daily Summary

Daily Weather History Graph

Daily Weather History Graph

Search for Another Location

Airport or City:

Trip Planner

Search our weather history database for the weather conditions in past years. The results will help you decide how hot, cold, wet, or windy it might be!

Date:

Astronomy

May. 04, 2014 Rise Set
Actual Time 6:01 AM PDT 7:50 PM PDT
Civil Twilight 5:33 AM PDT 8:18 PM PDT
Nautical Twilight 4:59 AM PDT 8:52 PM PDT
Astronomical Twilight 4:23 AM PDT 9:28 PM PDT
Moon 10:30 AM PDT (5/4) No Moon Set
Length of Visible Light 14h 44m
Length of Day
13h 48m
Waxing Crescent, 28% of the Moon is Illuminated
May 4
Waxing Crescent
May 6
First Quarter
May 14
Full
May 21
Last Quarter
May 28
New

Hourly Weather History & Observations

Time (PDT) Temp. Dew Point Humidity Pressure Visibility Wind Dir Wind Speed Gust Speed Precip Events Conditions
12:53 AM 62.1 °F 44.1 °F 52% 29.94 in 10.0 mi NW 17.3 mph 24.2 mph N/A   Clear
1:53 AM 61.0 °F 44.1 °F 54% 29.94 in 10.0 mi NW 17.3 mph - N/A   Clear
2:53 AM 60.1 °F 43.0 °F 53% 29.95 in 10.0 mi NW 16.1 mph - N/A   Clear
3:53 AM 57.9 °F 45.0 °F 62% 29.97 in 10.0 mi NW 13.8 mph - N/A   Clear
4:53 AM 57.0 °F 46.0 °F 67% 29.98 in 10.0 mi NW 15.0 mph - N/A   Clear
5:53 AM 55.9 °F 46.0 °F 69% 29.99 in 10.0 mi NW 10.4 mph - N/A   Scattered Clouds
6:53 AM 55.9 °F 46.0 °F 69% 30.01 in 10.0 mi NW 11.5 mph - N/A   Scattered Clouds
7:53 AM 57.9 °F 46.9 °F 67% 30.02 in 10.0 mi WNW 11.5 mph - N/A   Scattered Clouds
8:53 AM 62.1 °F 45.0 °F 53% 30.03 in 10.0 mi NW 11.5 mph - N/A   Scattered Clouds
9:53 AM 66.0 °F 45.0 °F 47% 30.03 in 10.0 mi NW 11.5 mph - N/A   Scattered Clouds
10:53 AM 69.1 °F 42.1 °F 38% 30.03 in 10.0 mi NW 9.2 mph - N/A   Scattered Clouds
11:53 AM 72.0 °F 42.1 °F 34% 30.02 in 10.0 mi NNW 9.2 mph - N/A   Scattered Clouds
12:53 PM 73.9 °F 41.0 °F 30% 30.00 in 10.0 mi WSW 6.9 mph - N/A   Scattered Clouds
1:53 PM 77.0 °F 42.1 °F 29% 29.99 in 10.0 mi Variable 4.6 mph - N/A   Scattered Clouds
2:53 PM 78.1 °F 43.0 °F 29% 29.97 in 10.0 mi WNW 8.1 mph - N/A   Scattered Clouds
3:53 PM 80.1 °F 41.0 °F 25% 29.94 in 10.0 mi NNW 10.4 mph - N/A   Scattered Clouds
4:53 PM 80.1 °F 41.0 °F 25% 29.93 in 10.0 mi NW 8.1 mph - N/A   Scattered Clouds
5:53 PM 78.1 °F 39.0 °F 25% 29.92 in 10.0 mi NW 10.4 mph - N/A   Mostly Cloudy
6:53 PM 75.9 °F 39.9 °F 27% 29.92 in 10.0 mi NW 11.5 mph - N/A   Mostly Cloudy
7:53 PM 73.9 °F 42.1 °F 32% 29.92 in 10.0 mi NW 11.5 mph - N/A   Mostly Cloudy
8:53 PM 72.0 °F 42.1 °F 34% 29.93 in 10.0 mi NW 8.1 mph - N/A   Scattered Clouds
9:53 PM 71.1 °F 44.1 °F 38% 29.95 in 10.0 mi NW 10.4 mph - N/A   Partly Cloudy
10:53 PM 68.0 °F 48.9 °F 50% 29.96 in 10.0 mi NW 13.8 mph - N/A   Partly Cloudy
11:53 PM 64.9 °F 48.9 °F 56% 29.97 in 10.0 mi NW 17.3 mph - N/A   Partly Cloudy